WB5LJO-13 Weather Reports


time (UTC)temp
C
wind
direction
speed
KPH
gust
KPH
rain 1hr
cm
rain 24hr
cm
rain mn
cm
humidity
%
barometer
mb
20260510204318 32 83 6.4 0.0 1.12 0.00 0.00 9
20260510203818 32 68 4.8 0.0 1.12 0.00 0.00 9
20260510203317 32 131 9.7 0.0 1.12 0.00 0.00 9
20260510202817 32 187 12.9 0.0 1.12 0.00 0.00 10
20260510202317 32 73 6.4 0.0 1.12 0.00 0.00 9
20260510201818 32 159 4.8 0.0 1.12 0.00 0.00 9
20260510201318 32 226 11.3 0.0 1.12 0.00 0.00 10
20260510200817 32 131 4.8 0.0 1.12 0.00 0.00 9
20260510200317 28 139 8.0 0.0 1.12 0.00 0.00 10
20260510195817 28 156 8.0 0.0 1.12 0.00 0.00 10
20260510195317 28 173 16.1 0.0 1.12 0.00 0.00 10
20260510194818 28 142 4.8 0.0 1.12 0.00 0.00 10
20260510194317 27 89 8.0 0.0 1.12 0.00 0.00 12
20260510193818 27 158 8.0 0.0 1.12 0.00 0.00 12
20260510193317 27 184 8.0 0.0 1.12 0.00 0.00 11
20260510192818 26 103 4.8 0.0 1.12 0.00 0.00 11
20260510192317 29 75 4.8 0.0 1.12 0.00 0.00 11
20260510191817 30 183 16.1 0.0 1.12 0.00 0.00 11
20260510191318 31 113 4.8 0.0 1.12 0.00 0.00 9
20260510190817 31 135 0.0 0.0 1.12 0.00 0.00 10
20260510190318 31 252 12.9 0.0 1.12 0.00 0.00 9
20260510185817 31 197 0.0 0.0 1.12 0.00 0.00 8
20260510185318 31 114 8.0 0.0 1.12 0.00 0.00 9
20260510184818 30 65 8.0 0.0 1.12 0.00 0.00 9
20260510184317 30 134 4.8 0.0 1.12 0.00 0.00 9
20260510183817 30 127 14.5 0.0 1.12 0.00 0.00 10
20260510183317 30 84 0.0 0.0 1.12 0.00 0.00 10
20260510182818 30 18 0.0 0.0 1.12 0.00 0.00 10
20260510182317 30 118 0.0 0.0 1.12 0.00 0.00 11
20260510181818 29 37 0.0 0.0 1.12 0.00 0.00 11
20260510181318 28 65 4.8 0.0 1.12 0.00 0.00 12
20260510180818 28 45 4.8 0.0 1.12 0.00 0.00 12
20260510180317 28 17 8.0 0.0 1.12 0.00 0.00 12
20260510175818 28 46 16.1 0.0 1.12 0.00 0.00 12
20260510175318 28 30 11.3 0.0 1.12 0.00 0.00 12
20260510174818 28 13 12.9 0.0 1.12 0.00 0.00 12
20260510174318 29 38 16.1 0.0 1.12 0.00 0.00 12
20260510173818 28 31 14.5 0.0 1.12 0.00 0.00 12
20260510173317 29 24 12.9 0.0 1.12 0.00 0.00 12
20260510172817 29 38 4.8 0.0 1.12 0.00 0.00 11
20260510172318 29 10 16.1 0.0 1.12 0.00 0.00 11
20260510171818 29 14 9.7 0.0 1.12 0.00 0.00 12
20260510171317 29 15 22.5 0.0 1.12 0.00 0.00 11
20260510170818 28 357 16.1 0.0 1.12 0.00 0.00 12
20260510170318 28 14 12.9 0.0 1.12 0.00 0.00 13
20260510165817 28 30 16.1 0.0 1.12 0.00 0.00 10
20260510165317 28 4 9.7 0.0 1.12 0.00 0.00 13
20260510164817 28 27 22.5 0.0 1.12 0.00 0.00 13
20260510164317 28 10 12.9 0.0 1.12 0.00 0.00 11
20260510163817 28 55 17.7 0.0 1.12 0.00 0.00 11
20260510163318 27 25 20.9 0.0 1.12 0.00 0.00 11
20260510162817 27 18 16.1 0.0 1.12 0.00 0.00 12
20260510162317 27 359 14.5 0.0 1.12 0.00 0.00 11
20260510161818 28 314 9.7 0.0 1.12 0.00 0.00 12
20260510161318 27 336 8.0 0.0 1.12 0.00 0.00 12
20260510160817 27 28 11.3 0.0 1.12 0.00 0.00 14
20260510160318 27 28 19.3 0.0 1.12 0.00 0.00 14
20260510155817 27 31 12.9 0.0 1.12 0.00 0.00 13
20260510155317 27 24 14.5 0.0 1.12 0.00 0.00 13
20260510154818 27 45 16.1 0.0 1.12 0.00 0.00 15
20260510154317 27 14 12.9 0.0 1.12 0.00 0.00 14
20260510153818 27 1 14.5 0.0 1.12 0.00 0.00 15
20260510153317 26 357 16.1 0.0 1.12 0.00 0.00 14
20260510152818 26 60 11.3 0.0 1.12 0.00 0.00 14
20260510152318 26 1 27.4 0.0 1.12 0.00 0.00 14
20260510151818 26 3 19.3 0.0 1.12 0.00 0.00 14
20260510151318 26 18 24.1 0.0 1.12 0.00 0.00 14
20260510150817 26 23 20.9 0.0 1.12 0.00 0.00 14
20260510150318 26 18 29.0 0.0 1.12 0.00 0.00 14
20260510145817 26 356 20.9 0.0 1.12 0.00 0.00 13
20260510145318 26 14 14.5 0.0 1.12 0.00 0.00 14
20260510144817 26 10 25.7 0.0 1.12 0.00 0.00 14
20260510144318 26 46 14.5 0.0 1.12 0.00 0.00 14
20260510143817 25 359 6.4 0.0 1.12 0.00 0.00 14
20260510142817 25 30 8.0 0.0 1.12 0.00 0.00 14
20260510142318 25 13 19.3 0.0 1.12 0.00 0.00 14
20260510141818 25 37 14.5 0.0 1.12 0.00 0.00 14
20260510141318 25 8 14.5 0.0 1.12 0.00 0.00 15
20260510140818 25 23 9.7 0.0 1.12 0.00 0.00 15
20260510140318 25 359 14.5 0.0 1.12 0.00 0.00 15
20260510135817 25 345 9.7 0.0 1.12 0.00 0.00 15
20260510135318 25 359 11.3 0.0 1.12 0.00 0.00 15
20260510134818 25 8 6.4 0.0 1.12 0.00 0.00 15
20260510134318 24 359 6.4 0.0 1.12 0.00 0.00 16
20260510133818 24 14 0.0 0.0 1.12 0.00 0.00 16
20260510133318 24 34 6.4 0.0 1.12 0.00 0.00 17
20260510132817 24 38 0.0 0.0 1.12 0.00 0.00 17
20260510132319 24 38 0.0 0.0 1.12 0.00 0.00 17
20260510131818 24 38 0.0 0.0 1.12 0.00 0.00 17
20260510131318 24 38 0.0 0.0 1.12 0.00 0.00 16
20260510130818 24 38 0.0 0.0 1.12 0.00 0.00 15
20260510130319 24 38 0.0 0.0 1.12 0.00 0.00 16
20260510125818 24 46 4.8 0.0 1.12 0.00 0.00 15
20260510125318 25 30 6.4 0.0 1.12 0.00 0.00 15
20260510124819 25 52 12.9 0.0 1.12 0.00 0.00 15
20260510124318 25 51 12.9 0.0 1.12 0.00 0.00 15
20260510123818 25 31 8.0 0.0 1.12 0.00 0.00 15
20260510123319 24 359 14.5 0.0 1.12 0.00 0.00 15
20260510122818 24 15 8.0 0.0 1.12 0.00 0.00 15
20260510122318 25 11 9.7 0.0 1.12 0.00 0.00 15
20260510121818 25 25 8.0 0.0 1.12 0.00 0.00 15
20260510121318 25 359 4.8 0.0 1.12 0.00 0.00 14
20260510120818 25 359 4.8 0.0 1.12 0.00 0.00 14
20260510115818 25 17 9.7 0.0 1.12 0.00 0.00 14
20260510115318 25 38 9.7 0.0 1.12 0.00 0.00 14
20260510114818 25 359 8.0 0.0 1.12 0.00 0.00 13
20260510114318 26 25 8.0 0.0 1.12 0.00 0.00 13
20260510113817 26 350 12.9 0.0 1.12 0.00 0.00 13
20260510113318 26 52 9.7 0.0 1.12 0.00 0.00 12
20260510112817 26 20 9.7 0.0 1.12 0.00 0.00 12
20260510112318 26 352 19.3 0.0 1.12 0.00 0.00 12
20260510111818 26 1 16.1 0.0 1.12 0.00 0.00 12
20260510111318 26 10 6.4 0.0 1.12 0.00 0.00 12
20260510110318 26 314 0.0 0.0 1.12 0.00 0.00 11
20260510105818 26 308 14.5 0.0 1.12 0.00 0.00 11
20260510105318 26 25 8.0 0.0 1.12 0.00 0.00 11
20260510104818 26 304 12.9 0.0 1.12 0.00 0.00 11
20260510104318 26 359 11.3 0.0 1.12 0.00 0.00 11
20260510103818 26 326 14.5 0.0 1.12 0.00 0.00 11
20260510103318 27 339 19.3 0.0 1.12 0.00 0.00 11
20260510102818 27 305 9.7 0.0 1.12 0.00 0.00 10
20260510102318 27 304 11.3 0.0 1.12 0.00 0.00 10
20260510101818 27 8 11.3 0.0 1.12 0.00 0.00 10
20260510101317 27 346 20.9 0.0 1.12 0.00 0.00 10
20260510100817 26 21 11.3 0.0 1.12 0.00 0.00 10
20260510100318 26 287 11.3 0.0 1.12 0.00 0.00 10
20260510095818 26 322 9.7 0.0 1.12 0.00 0.00 10
20260510095318 26 284 14.5 0.0 1.12 0.00 0.00 10
20260510094818 26 307 11.3 0.0 1.12 0.00 0.00 10
20260510094318 27 352 9.7 0.0 1.12 0.00 0.00 10
20260510093817 27 8 4.8 0.0 1.12 0.00 0.00 10
20260510093318 26 302 8.0 0.0 1.12 0.00 0.00 11
20260510092817 26 285 9.7 0.0 1.12 0.00 0.00 10
20260510092317 26 316 9.7 0.0 1.12 0.00 0.00 10
20260510091818 26 288 11.3 0.0 1.12 0.00 0.00 10
20260510091317 26 359 9.7 0.0 1.12 0.00 0.00 10
20260510090817 26 350 9.7 0.0 1.12 0.00 0.00 10
20260510090318 26 295 14.5 0.0 1.12 0.00 0.00 10
20260510085817 26 346 9.7 0.0 1.12 0.00 0.00 10
20260510085317 27 240 8.0 0.0 1.12 0.00 0.00 10
20260510084818 26 321 30.6 0.0 1.12 0.00 0.00 10
20260510084317 27 283 20.9 0.0 1.12 0.00 0.00 10
20260510083817 26 285 17.7 0.0 1.12 0.00 0.00 10
20260510083318 27 309 14.5 0.0 1.12 0.00 0.00 10
20260510082818 26 345 9.7 0.0 1.12 0.00 0.00 10
20260510082317 26 321 12.9 0.0 1.12 0.00 0.00 10
20260510081817 26 321 19.3 0.0 1.12 0.00 0.00 10
20260510081317 26 298 12.9 0.0 1.12 0.00 0.00 10
20260510080817 26 333 12.9 0.0 1.12 0.00 0.00 10
20260510080318 26 347 9.7 0.0 1.12 0.00 0.00 10
20260510075817 26 326 14.5 0.0 1.12 0.00 0.00 10
20260510075318 26 291 20.9 0.0 1.12 0.00 0.00 10
20260510074817 26 301 8.0 0.0 1.12 0.00 0.00 10
20260510074317 26 302 9.7 0.0 1.12 0.00 0.00 9
20260510073817 27 338 8.0 0.0 1.12 0.00 0.00 9
20260510073317 27 288 0.0 0.0 1.12 0.00 0.00 8
20260510072817 27 323 11.3 0.0 1.12 0.00 0.00 9
20260510072317 27 298 9.7 0.0 1.12 0.00 0.00 9
20260510071817 26 359 4.8 0.0 1.12 0.00 0.00 9
20260510071317 26 309 8.0 0.0 1.12 0.00 0.00 10
20260510070817 26 259 4.8 0.0 1.12 0.00 0.00 9
20260510065817 27 266 9.7 0.0 1.12 0.00 0.00 9
20260510065318 27 302 4.8 0.0 1.12 0.00 0.00 9
20260510064817 27 311 8.0 0.0 1.12 0.00 0.00 9
20260510064317 27 229 6.4 0.0 1.12 0.00 0.00 9
20260510063817 27 314 8.0 0.0 1.12 0.00 0.00 9
20260510063318 27 252 11.3 0.0 1.12 0.00 0.00 9
20260510062817 27 273 4.8 0.0 1.12 0.00 0.00 8
20260510062317 27 325 8.0 0.0 1.12 0.00 0.00 8
20260510061817 27 298 6.4 0.0 1.12 0.00 0.00 8
20260510061317 27 293 9.7 0.0 1.12 0.00 0.00 8
20260510060817 27 326 4.8 0.0 1.12 0.00 0.00 8
20260510060318 27 295 8.0 0.0 1.12 0.00 0.00 8
20260510055817 27 290 0.0 0.0 1.12 0.00 0.00 8
20260510055317 27 318 9.7 0.0 1.12 0.00 0.00 8
20260510054817 27 260 8.0 0.0 1.12 0.00 0.00 8
20260510054317 27 297 0.0 0.0 1.12 0.00 0.00 8
20260510053817 28 294 0.0 0.0 1.12 0.00 0.00 8
20260510053317 28 285 8.0 0.0 1.12 0.00 0.00 7
20260510052817 28 267 9.7 0.0 1.12 0.00 0.00 7
20260510052317 27 1 9.7 0.0 1.12 0.00 0.00 8
20260510051818 27 330 8.0 0.0 1.12 0.00 0.00 8
20260510051317 27 297 8.0 0.0 1.12 0.00 0.00 8
20260510050818 28 293 4.8 0.0 1.12 0.00 0.00 7
20260510050317 28 309 4.8 0.0 1.12 0.00 0.00 7
20260510045817 28 314 9.7 0.0 1.12 0.00 0.00 7
20260510045317 28 326 6.4 0.0 1.12 0.00 0.00 7
20260510044818 28 294 4.8 0.0 1.12 0.00 0.00 7
20260510044317 28 342 11.3 0.0 1.12 0.00 0.00 7
20260510043817 28 248 6.4 0.0 1.12 0.00 0.00 7
20260510043318 28 301 9.7 0.0 1.12 0.00 0.00 7
20260510042817 28 242 12.9 0.0 1.12 0.00 0.00 7
20260510042318 28 256 8.0 0.0 1.12 0.00 0.00 7
20260510041818 28 287 8.0 0.0 1.12 0.00 0.00 7
20260510041317 28 328 4.8 0.0 1.12 0.00 0.00 7
20260510040818 28 269 4.8 0.0 1.12 0.00 0.00 7
20260510040317 28 238 9.7 0.0 1.12 0.00 0.00 7
20260510035817 28 288 6.4 0.0 1.12 0.00 0.00 7
20260510035317 28 304 8.0 0.0 1.12 0.00 0.00 7
20260510034818 29 345 9.7 0.0 1.12 0.00 0.00 7
20260510034318 29 350 8.0 0.0 1.12 0.00 0.00 7
20260510033818 29 295 19.3 0.0 1.12 0.00 0.00 7
20260510033317 29 283 8.0 0.0 1.12 0.00 0.00 7
20260510032818 29 281 8.0 0.0 1.12 0.00 0.00 7
20260510032317 30 291 11.3 0.0 1.12 0.00 0.00 7
20260510031817 30 283 0.0 0.0 1.12 0.00 0.00 7
20260510031318 30 302 11.3 0.0 1.12 0.00 0.00 7
20260510030817 30 342 8.0 0.0 1.12 0.00 0.00 7
20260510030317 30 218 8.0 0.0 1.12 0.00 0.00 7
20260510025817 30 291 8.0 0.0 1.12 0.00 0.00 7
20260510025317 30 276 9.7 0.0 1.12 0.00 0.00 7
20260510024817 30 273 0.0 0.0 1.12 0.00 0.00 7
20260510024318 30 308 4.8 0.0 1.12 0.00 0.00 7
20260510023817 30 221 9.7 0.0 1.12 0.00 0.00 7
20260510023317 30 217 16.1 0.0 1.12 0.00 0.00 7
20260510022817 30 226 0.0 0.0 1.12 0.00 0.00 7
20260510022318 30 226 0.0 0.0 1.12 0.00 0.00 8
20260510021817 30 226 0.0 0.0 1.12 0.00 0.00 7
20260510021317 30 159 0.0 0.0 1.12 0.00 0.00 7
20260510020817 30 256 0.0 0.0 1.12 0.00 0.00 7
20260510020317 30 203 0.0 0.0 1.12 0.00 0.00 7
20260510015817 30 204 11.3 0.0 1.12 0.00 0.00 7
20260510015318 30 173 0.0 0.0 1.12 0.00 0.00 7
20260510014818 30 173 0.0 0.0 1.12 0.00 0.00 7
20260510014318 31 173 0.0 0.0 1.12 0.00 0.00 7
20260510013817 31 210 4.8 0.0 1.12 0.00 0.00 7
20260510013318 31 276 0.0 0.0 1.12 0.00 0.00 7
20260510012817 31 276 0.0 0.0 1.12 0.00 0.00 7
20260510012317 31 308 0.0 0.0 1.12 0.00 0.00 7
20260510011817 32 217 0.0 0.0 1.12 0.00 0.00 7
20260510011317 32 201 0.0 0.0 1.12 0.00 0.00 6
20260510010817 32 316 0.0 0.0 1.12 0.00 0.00 6
20260510010318 31 276 12.9 0.0 1.12 0.00 0.00 6
20260510005818 31 191 9.7 0.0 1.12 0.00 0.00 6
20260510005317 31 231 16.1 0.0 1.12 0.00 0.00 6
20260510004818 32 181 11.3 0.0 1.12 0.00 0.00 6
20260510004317 32 285 0.0 0.0 1.12 0.00 0.00 6
20260510003817 32 170 9.7 0.0 1.12 0.00 0.00 6
20260510003317 32 229 8.0 0.0 1.12 0.00 0.00 6
20260510002817 32 270 4.8 0.0 1.12 0.00 0.00 6
20260510002317 32 226 20.9 0.0 1.12 0.00 0.00 6
20260510001817 32 233 8.0 0.0 1.12 0.00 0.00 6
20260510001317 33 170 4.8 0.0 1.12 0.00 0.00 6
20260510000817 33 14 17.7 0.0 1.12 0.00 0.00 6
20260510000319 33 307 0.0 0.0 1.12 0.00 0.00 6
20260509235817 33 215 8.0 0.0 1.12 0.00 0.00 6
20260509235317 33 226 8.0 0.0 1.12 0.00 0.00 6
20260509234818 33 225 8.0 0.0 1.12 0.00 0.00 6
20260509234318 33 25 8.0 0.0 1.12 0.00 0.00 6
20260509233817 33 307 14.5 0.0 1.12 0.00 0.00 1
20260509233318 33 210 16.1 0.0 1.12 0.00 0.00 6
20260509232818 33 100 3.2 0.0 1.12 0.00 0.00 6
20260509232318 33 283 8.0 0.0 1.12 0.00 0.00 6
20260509231818 33 273 4.8 0.0 1.12 0.00 0.00 6
20260509231317 33 336 9.7 0.0 1.12 0.00 0.00 6
20260509230817 33 345 8.0 0.0 1.12 0.00 0.00 6
20260509230317 33 329 9.7 0.0 1.12 0.00 0.00 6
20260509225818 33 3 8.0 0.0 1.12 0.00 0.00 6
20260509225318 33 8 4.8 0.0 1.12 0.00 0.00 6
20260509224817 30 359 8.0 0.0 1.12 0.00 0.00 6
20260509224318 30 276 11.3 0.0 1.12 0.00 0.00 6
20260509223817 30 156 1.6 0.0 1.12 0.00 0.00 6
20260509223317 31 210 0.0 0.0 1.12 0.00 0.00 6
20260509222818 31 311 0.0 0.0 1.12 0.00 0.00 6
20260509222317 32 309 8.0 0.0 1.12 0.00 0.00 6
20260509221818 32 302 0.0 0.0 1.12 0.00 0.00 6
20260509221317 32 188 0.0 0.0 1.12 0.00 0.00 6
20260509220817 31 129 0.0 0.0 1.12 0.00 0.00 6
20260509220317 31 278 0.0 0.0 1.12 0.00 0.00 6
20260509215817 31 197 11.3 0.0 1.12 0.00 0.00 6
20260509215317 31 198 17.7 0.0 1.12 0.00 0.00 6
20260509214817 31 7 11.3 0.0 1.12 0.00 0.00 6
20260509214317 31 311 4.8 0.0 1.12 0.00 0.00 6
20260509213817 31 8 3.2 0.0 1.12 0.00 0.00 6
20260509213318 31 236 9.7 0.0 1.12 0.00 0.00 6
20260509212817 31 191 12.9 0.0 1.12 0.00 0.00 6
20260509212317 31 15 3.2 0.0 1.12 0.00 0.00 6
20260509211817 31 217 11.3 0.0 1.12 0.00 0.00 6
20260509211317 31 25 6.4 0.0 1.12 0.00 0.00 6
20260509210817 31 257 0.0 0.0 1.12 0.00 0.00 6
20260509210318 31 204 11.3 0.0 1.12 0.00 0.00 6
20260509205818 31 229 8.0 0.0 1.12 0.00 0.00 6
20260509205318 31 224 11.3 0.0 1.12 0.00 0.00 6
20260509204817 31 295 8.0 0.0 1.12 0.00 0.00 6